Hourly Data Report for October 04, 2015

All times are specified in Local Standard Time (LST). Add 1 hour to adjust for Daylight Saving Time where and when it is observed.

EUREKA CLIMATE
NUNAVUT

79°59'21.000" N
85°56'02.000" W
10.00 m
2401199
71613
NEK

Download Data

Hourly Data (October 2015)
Hourly Data Report for October 4, 2015
Temp Definition
°C
Dew Point Temp Definition
°C
Rel Hum Definition
%
Wind Dir Definition
10's deg

Wind Spd Definition
km/h
Visibility Definition
km
Stn Press Definition
kPa
Hmdx Definition


Wind Chill Definition


Weather Definition


TIME
00:00 -3.5 -4.5 93 13 25   100.57   -10 LegendNANA
01:00 -3.9 -4.7 94 11 22   100.63   -10 LegendNANA
02:00 -3.1 -4.6 90 16 34   100.62   -11 LegendNANA
03:00 -3.2 -4.1 94 16 37   100.62   -11 LegendNANA
04:00 -3.6 -4.2 96 17 45   100.58   -13 LegendNANA
05:00 -3.6 -4.3 95 16 47   100.60   -13 LegendNANA
06:00 -3.3 -4.6 91 16 46   100.63   -12 LegendNANA
07:00 -3.8 -4.6 94 14 37   100.73   -12 LegendNANA
08:00 -3.6 -4.6 92 16 41   100.71   -12 LegendNANA
09:00 -3.7 -4.9 92 15 35   100.76   -12 LegendNANA
10:00 -3.4 -4.5 93 16 41   100.74   -12 LegendNANA
11:00 -3.6 -4.7 92 16 35   100.76   -12 LegendNANA
12:00 -3.4 -4.7 90 16 33   100.77   -11 LegendNANA
13:00 -3.6 -4.9 90 16 32   100.78   -11 LegendNANA
14:00 -3.6 -4.8 91 16 35   100.78   -12 LegendNANA
15:00 -4.0 -5.3 91 16 30   100.79   -12 LegendNANA
16:00 -4.8 -6.2 90 12 20   100.86   -11 LegendNANA
17:00 -4.1 -6.4 84 10 23   100.86   -11 LegendNANA
18:00 -4.0 -6.2 85 11 21   100.87   -10 LegendNANA
19:00 -3.5 -5.7 84 13 26   100.86   -11 LegendNANA
20:00 -4.9 -7.0 85 13 24   100.87   -12 LegendNANA
21:00 -4.8 -6.7 86 13 19   100.88   -11 LegendNANA
22:00 -5.6 -7.0 90 15 16   100.86   -12 LegendNANA
23:00 -6.7 -8.6 87 12 9   100.86   -11 LegendNANA

Notes on Data Quality.

Legend

  • E = Estimated
  • M = Missing
  • NA = Not Available
  • ‡ = Partner data that is not subject to review by the National Climate Archives
Date modified: